sat.trackr.live / text

‹ back to catalog

HULIANWANG DIGUI-73

NORAD 65305 · 2025-187A

PAYLOAD ACTIVE UNKNOWN

§ Identity

Operator
Country
PRC
Launch date
2025-08-25
Launch site
WSC
Launch vehicle
Mass (kg)
RCS (m²)

External: N2YO · Heavens-Above · Gunter

§ Orbital elements

Epoch: 2026-05-25T03:10:34.356576Z

Period
108.33 min
Inclination
50.0058°
Eccentricity
0.0000610
Mean motion
13.29322543 rev/d
Perigee alt
1,148.9 km
Apogee alt
1,149.8 km
Semi-major
7,527.5 km
B*
5.2982e-5
RAAN
288.5638°
Arg perigee
96.8868°
Mean anomaly
263.2074°
Rev number
3,663

§ Raw data

HULIANWANG DIGUI-731 65305U 25187A   26145.13234209 -.00000099  00000+0  52982-4 0  99922 65305  50.0058 288.5638 0000610  96.8868 263.2074 13.29322543 36637

JSON: /api/v1/satellites/65305 · /tle

For live sub-satellite position, see the globe view (requires WebGL).

§ Visibility from observer

Set your observer location to see the next 7 days of passes ≥ 10°. The values pass through the URL so the page stays shareable.

No JS? Fill the form by hand. The geolocation button needs JavaScript.